• In Deutschland
  • Länderverzeichnis
  • Für 7 Tage
  • Wassertemperatur
  • Satellitenkarten
  • Wetterkarte
  • Widgets
  • user-avatar
    Anmelden

    Stündliche Wetter Shusha

    Heute, 29 Mai, Montag

    Zeit Temperatur Niederschläge Wind Luftdruck Luftfeuchtigkeit
    00:00 +12°C° 0,2 mm 1 m/S 660 mmHg 79%
    01:00 +11°C° 0,1 mm 1 m/S 660 mmHg 79%
    02:00 +11°C° 0,1 mm 1 m/S 660 mmHg 79%
    03:00 +11°C° 0 mm 1 m/S 660 mmHg 78%
    04:00 +12°C° 0,1 mm 1 m/S 661 mmHg 75%
    05:00 +13°C° 0,1 mm 1 m/S 661 mmHg 71%
    06:00 +15°C° 0,1 mm 1 m/S 662 mmHg 68%
    07:00 +16°C° 0 mm 1 m/S 662 mmHg 63%
    08:00 +19°C° 0 mm 1 m/S 663 mmHg 58%
    09:00 +20°C° 0 mm 2 m/S 664 mmHg 57%
    10:00 +21°C° 0,2 mm 2 m/S 664 mmHg 54%
    11:00 +21°C° 0,2 mm 3 m/S 664 mmHg 50%
    12:00 +22°C° 0,2 mm 3 m/S 664 mmHg 47%
    13:00 +24°C° 0,4 mm 3 m/S 664 mmHg 47%
    14:00 +23°C° 0,4 mm 4 m/S 664 mmHg 47%
    15:00 +23°C° 0 mm 4 m/S 664 mmHg 46%
    16:00 +22°C° 0,2 mm 4 m/S 664 mmHg 51%
    17:00 +20°C° 0,2 mm 3 m/S 663 mmHg 55%
    18:00 +19°C° 0,2 mm 3 m/S 663 mmHg 59%
    19:00 +17°C° 0 mm 3 m/S 663 mmHg 66%
    20:00 +15°C° 0 mm 2 m/S 662 mmHg 73%
    21:00 +12°C° 0 mm 2 m/S 662 mmHg 79%
    22:00 +12°C° 0 mm 1 m/S 662 mmHg 81%
    23:00 +11°C° 0 mm 1 m/S 662 mmHg 82%

    Morgen, 30 Mai, Dienstag

    Zeit Temperatur Niederschläge Wind Luftdruck Luftfeuchtigkeit
    00:00 +11°C° 0 mm 1 m/S 662 mmHg 83%
    01:00 +10°C° 0 mm 1 m/S 661 mmHg 84%
    02:00 +10°C° 0 mm 1 m/S 661 mmHg 85%
    03:00 +9°C° 0 mm 1 m/S 661 mmHg 85%
    04:00 +11°C° 0 mm 1 m/S 661 mmHg 81%
    05:00 +12°C° 0 mm 1 m/S 662 mmHg 77%
    06:00 +14°C° 0 mm 1 m/S 662 mmHg 72%
    07:00 +16°C° 0 mm 1 m/S 662 mmHg 64%
    08:00 +18°C° 0 mm 2 m/S 663 mmHg 56%
    09:00 +20°C° 0 mm 2 m/S 663 mmHg 47%
    10:00 +21°C° 0 mm 2 m/S 663 mmHg 44%
    11:00 +24°C° 0 mm 2 m/S 663 mmHg 40%
    12:00 +25°C° 0 mm 3 m/S 662 mmHg 37%
    13:00 +25°C° 0 mm 3 m/S 662 mmHg 37%
    14:00 +26°C° 0 mm 3 m/S 662 mmHg 37%
    15:00 +26°C° 0 mm 3 m/S 661 mmHg 36%
    16:00 +25°C° 0 mm 2 m/S 661 mmHg 41%
    17:00 +24°C° 0 mm 2 m/S 661 mmHg 45%
    18:00 +23°C° 0 mm 1 m/S 660 mmHg 50%
    19:00 +21°C° 0 mm 1 m/S 660 mmHg 57%
    20:00 +18°C° 0 mm 1 m/S 659 mmHg 65%
    21:00 +14°C° 0 mm 1 m/S 659 mmHg 72%
    22:00 +14°C° 0 mm 1 m/S 659 mmHg 69%
    23:00 +14°C° 0 mm 2 m/S 659 mmHg 66%

    übermorgen, 31 Mai, Mittwoch

    Zeit Temperatur Niederschläge Wind Luftdruck Luftfeuchtigkeit
    00:00 +15°C° 0 mm 2 m/S 659 mmHg 63%
    01:00 +14°C° 0 mm 2 m/S 659 mmHg 63%
    02:00 +14°C° 0 mm 2 m/S 658 mmHg 63%
    03:00 +13°C° 0 mm 2 m/S 658 mmHg 63%
    04:00 +15°C° 0 mm 2 m/S 658 mmHg 60%
    05:00 +16°C° 0 mm 1 m/S 659 mmHg 57%
    06:00 +18°C° 0 mm 1 m/S 659 mmHg 54%
    07:00 +19°C° 0 mm 2 m/S 660 mmHg 47%
    08:00 +23°C° 0 mm 2 m/S 660 mmHg 40%
    09:00 +25°C° 0 mm 2 m/S 660 mmHg 33%
    10:00 +26°C° 0 mm 2 m/S 660 mmHg 31%
    11:00 +27°C° 0 mm 3 m/S 660 mmHg 30%
    12:00 +27°C° 0 mm 3 m/S 659 mmHg 29%
    13:00 +27°C° 0 mm 3 m/S 659 mmHg 29%
    14:00 +27°C° 0 mm 3 m/S 658 mmHg 30%
    15:00 +28°C° 0 mm 3 m/S 658 mmHg 31%
    16:00 +26°C° 0,1 mm 3 m/S 658 mmHg 37%
    17:00 +25°C° 0,1 mm 3 m/S 657 mmHg 42%
    18:00 +24°C° 0,1 mm 2 m/S 657 mmHg 48%
    19:00 +20°C° 0,3 mm 2 m/S 657 mmHg 56%
    20:00 +17°C° 0,3 mm 2 m/S 657 mmHg 64%
    21:00 +15°C° 0,3 mm 1 m/S 656 mmHg 72%
    22:00 +14°C° 0,3 mm 1 m/S 656 mmHg 74%
    23:00 +14°C° 0,3 mm 1 m/S 656 mmHg 75%

    1 Juni, Donnerstag

    Zeit Temperatur Niederschläge Wind Luftdruck Luftfeuchtigkeit
    00:00 +13°C° 0,3 mm 1 m/S 656 mmHg 77%
    01:00 +13°C° 0,1 mm 1 m/S 656 mmHg 77%
    02:00 +13°C° 0,1 mm 1 m/S 656 mmHg 78%
    03:00 +12°C° 0,1 mm 1 m/S 656 mmHg 78%
    04:00 +13°C° 0,1 mm 1 m/S 657 mmHg 75%
    05:00 +14°C° 0,1 mm 1 m/S 657 mmHg 71%
    06:00 +15°C° 0,1 mm 1 m/S 658 mmHg 68%
    07:00 +18°C° 0,1 mm 1 m/S 658 mmHg 60%
    08:00 +19°C° 0,1 mm 2 m/S 659 mmHg 53%
    09:00 +21°C° 0,1 mm 2 m/S 659 mmHg 45%
    10:00 +22°C° 0,2 mm 3 m/S 659 mmHg 43%
    11:00 +24°C° 0,2 mm 3 m/S 659 mmHg 40%
    12:00 +25°C° 0,2 mm 3 m/S 659 mmHg 37%
    13:00 +25°C° 0,3 mm 3 m/S 658 mmHg 37%
    14:00 +25°C° 0,3 mm 3 m/S 658 mmHg 37%
    15:00 +25°C° 0,3 mm 3 m/S 658 mmHg 37%
    16:00 +24°C° 0,4 mm 2 m/S 658 mmHg 42%
    17:00 +23°C° 0,4 mm 2 m/S 658 mmHg 47%
    18:00 +22°C° 0,4 mm 1 m/S 657 mmHg 52%
    19:00 +20°C° 0,1 mm 1 m/S 657 mmHg 59%
    20:00 +16°C° 0,1 mm 1 m/S 657 mmHg 66%
    21:00 +14°C° 0,1 mm 1 m/S 657 mmHg 73%
    22:00 +14°C° 0,1 mm 1 m/S 657 mmHg 73%
    23:00 +13°C° 0,1 mm 1 m/S 657 mmHg 73%

    2 Juni, Freitag

    Zeit Temperatur Niederschläge Wind Luftdruck Luftfeuchtigkeit
    00:00 +13°C° 0,1 mm 1 m/S 657 mmHg 73%
    01:00 +12°C° 0 mm 1 m/S 657 mmHg 74%
    02:00 +11°C° 0 mm 1 m/S 657 mmHg 76%
    03:00 +11°C° 0 mm 1 m/S 657 mmHg 78%
    04:00 +12°C° 0 mm 1 m/S 657 mmHg 74%
    05:00 +14°C° 0 mm 1 m/S 658 mmHg 70%
    06:00 +15°C° 0 mm 1 m/S 659 mmHg 66%
    07:00 +18°C° 0 mm 1 m/S 659 mmHg 60%
    08:00 +19°C° 0 mm 2 m/S 660 mmHg 53%
    09:00 +20°C° 0 mm 2 m/S 660 mmHg 46%
    10:00 +21°C° 0,1 mm 2 m/S 660 mmHg 44%
    11:00 +22°C° 0,1 mm 3 m/S 660 mmHg 42%
    12:00 +24°C° 0,1 mm 3 m/S 660 mmHg 40%
    13:00 +24°C° 0,5 mm 3 m/S 659 mmHg 40%
    14:00 +24°C° 0,5 mm 2 m/S 659 mmHg 40%
    15:00 +24°C° 0,5 mm 2 m/S 659 mmHg 40%
    16:00 +24°C° 0,4 mm 2 m/S 659 mmHg 43%
    17:00 +23°C° 0,4 mm 2 m/S 659 mmHg 46%
    18:00 +21°C° 0,4 mm 2 m/S 659 mmHg 49%
    19:00 +19°C° 0,2 mm 2 m/S 659 mmHg 57%
    20:00 +16°C° 0,2 mm 2 m/S 659 mmHg 65%
    21:00 +13°C° 0,2 mm 1 m/S 659 mmHg 73%
    22:00 +13°C° 0,1 mm 1 m/S 659 mmHg 75%
    23:00 +12°C° 0,1 mm 1 m/S 659 mmHg 76%

    3 Juni, Samstag

    Zeit Temperatur Niederschläge Wind Luftdruck Luftfeuchtigkeit
    00:00 +12°C° 0,1 mm 1 m/S 659 mmHg 78%
    01:00 +12°C° 0 mm 1 m/S 659 mmHg 79%
    02:00 +11°C° 0 mm 1 m/S 659 mmHg 80%
    03:00 +11°C° 0 mm 1 m/S 659 mmHg 81%
    04:00 +12°C° 0 mm 1 m/S 660 mmHg 77%
    05:00 +13°C° 0 mm 1 m/S 660 mmHg 74%
    06:00 +15°C° 0 mm 1 m/S 661 mmHg 70%
    07:00 +16°C° 0 mm 1 m/S 661 mmHg 64%
    08:00 +17°C° 0 mm 2 m/S 662 mmHg 59%
    09:00 +19°C° 0 mm 2 m/S 662 mmHg 53%
    10:00 +19°C° 0,1 mm 2 m/S 662 mmHg 53%
    11:00 +20°C° 0,1 mm 3 m/S 662 mmHg 52%
    12:00 +20°C° 0,1 mm 3 m/S 661 mmHg 52%
    13:00 +20°C° 0,2 mm 3 m/S 661 mmHg 52%
    14:00 +20°C° 0,2 mm 3 m/S 661 mmHg 53%
    15:00 +20°C° 0,2 mm 3 m/S 661 mmHg 54%
    16:00 +20°C° 0,2 mm 2 m/S 661 mmHg 57%
    17:00 +19°C° 0,2 mm 2 m/S 661 mmHg 60%
    18:00 +19°C° 0,2 mm 2 m/S 661 mmHg 63%
    19:00 +17°C° 0,3 mm 2 m/S 660 mmHg 69%
    20:00 +15°C° 0,3 mm 1 m/S 660 mmHg 76%
    21:00 +13°C° 0,3 mm 1 m/S 660 mmHg 83%
    22:00 +12°C° 0,1 mm 1 m/S 660 mmHg 84%
    23:00 +12°C° 0,1 mm 1 m/S 660 mmHg 86%
    Mehr zeigen